Location: *
(49.7115°N, 15.0136°E)
Time: 01:20:54
(UTC+00:00)

ATLAS 2AS CENTAUR R/B - Pass Details

Date: 27 February 2020
Orbit: 929 x 1283 km, 63.7° (Epoch: 27 March)

Event Time Altitude Azimuth Distance (km) Brightness Sun altitude
Rises 19:48:37 0° 204° (SSW) 4,188 5.8 -30.8°
Reaches altitude 10° 19:51:25 10° 201° (SSW) 3,248 5.1 -31.3°
Enters shadow 19:53:44 21° 196° (SSW) 2,506 4.5 -31.6°
